Marshfield, MA

6:31 PM EDT on March 25, 2017 (GMT -0400)
Marshfield

Weather History for KGHG - March, 2013

Change the Weather History Date:

Saturday, March 2, 2013

  Actual Average (KPYM) Record (KPYM)
Temperature  
Mean Temperature 38 °F -  
Max Temperature 42 °F 43 °F 66 °F (1972)
Min Temperature 33 °F 23 °F 5 °F (1980)
Degree Days  
Heating Degree Days 28    
Moisture  
Dew Point 30 °F    
Average Humidity 73    
Maximum Humidity 81    
Minimum Humidity 61    
Precipitation  
Precipitation 0.00 in - - ()
Sea Level Pressure  
Sea Level Pressure 29.66 in    
Wind  
Wind Speed 5 mph (NW)    
Max Wind Speed 10 mph    
Max Gust Speed -    
Visibility 10 miles    
Events      
Averages and records for this station are not official NWS values.
T = Trace of Precipitation, MM = Missing Value Source: NWS Daily Summary

Daily Weather History Graph

Daily Weather History Graph

Search for Another Location

Airport or City:

Trip Planner

Search our weather history database for the weather conditions in past years. The results will help you decide how hot, cold, wet, or windy it might be!

Date:

Astronomy

Mar. 02, 2013 Rise Set
Actual Time 6:15 AM EST 5:34 PM EST
Civil Twilight 5:47 AM EST 6:02 PM EST
Nautical Twilight 5:15 AM EST 6:34 PM EST
Astronomical Twilight 4:43 AM EST 7:07 PM EST
Moon 11:17 PM EST (3/2) 8:35 AM EST (3/2)
Length of Visible Light 12h 14m
Length of Day
11h 18m
Waning Gibbous, 74% of the Moon is Illuminated
Mar 2
Waning Gibbous
Mar 4
Last Quarter
Mar 11
New
Mar 19
First Quarter
Mar 27
Full

Hourly Weather History & Observations

Time (EST) Temp. Windchill Dew Point Humidity Pressure Visibility Wind Dir Wind Speed Gust Speed Precip Events Conditions
12:15 AM 37.4 °F 32.1 °F 30.2 °F 75% 29.67 in 10.0 mi WNW 6.9 mph - N/A   Overcast
12:35 AM 37.4 °F 33.8 °F 30.2 °F 75% 29.67 in 10.0 mi WNW 4.6 mph - N/A   Overcast
12:55 AM 37.4 °F 32.8 °F 30.2 °F 75% 29.67 in 10.0 mi WNW 5.8 mph - N/A   Overcast
1:15 AM 37.4 °F 32.8 °F 30.2 °F 75% 29.67 in 10.0 mi WNW 5.8 mph - N/A   Overcast
1:35 AM 37.4 °F 32.8 °F 30.2 °F 75% 29.66 in 10.0 mi WNW 5.8 mph - N/A   Overcast
1:55 AM 37.4 °F 32.8 °F 30.2 °F 75% 29.67 in 10.0 mi WNW 5.8 mph - N/A   Overcast
2:35 AM 35.6 °F 30.7 °F 30.2 °F 81% 29.66 in 10.0 mi West 5.8 mph - N/A   Overcast
2:55 AM 35.6 °F 31.7 °F 30.2 °F 81% 29.66 in 10.0 mi West 4.6 mph - N/A   Overcast
3:15 AM 35.6 °F 29.9 °F 30.2 °F 81% 29.66 in 10.0 mi West 6.9 mph - N/A   Overcast
3:35 AM 35.6 °F 31.7 °F 30.2 °F 81% 29.66 in 10.0 mi WNW 4.6 mph - N/A   Overcast
3:55 AM 35.6 °F 32.8 °F 30.2 °F 81% 29.66 in 10.0 mi WNW 3.5 mph - N/A   Overcast
4:35 AM 35.6 °F 31.7 °F 30.2 °F 81% 29.67 in 10.0 mi WNW 4.6 mph - N/A   Mostly Cloudy
4:55 AM 35.6 °F 32.8 °F 28.4 °F 75% 29.67 in 10.0 mi West 3.5 mph - N/A   Scattered Clouds
5:15 AM 33.8 °F 30.8 °F 28.4 °F 81% 29.67 in 10.0 mi West 3.5 mph - N/A   Partly Cloudy
5:35 AM 33.8 °F - 28.4 °F 81% 29.68 in 10.0 mi Calm Calm - N/A   Mostly Cloudy
5:55 AM 33.8 °F 30.8 °F 28.4 °F 81% 29.67 in 10.0 mi West 3.5 mph - N/A   Overcast
6:15 AM 33.8 °F 30.8 °F 28.4 °F 81% 29.68 in 10.0 mi West 3.5 mph - N/A   Overcast
6:35 AM 33.8 °F 30.8 °F 28.4 °F 81% 29.67 in 10.0 mi WNW 3.5 mph - N/A   Scattered Clouds
6:55 AM 33.8 °F 30.8 °F 28.4 °F 81% 29.68 in 10.0 mi West 3.5 mph - N/A   Clear
7:15 AM 35.6 °F 32.8 °F 28.4 °F 75% 29.68 in 10.0 mi West 3.5 mph - N/A   Clear
7:35 AM 35.6 °F 30.7 °F 28.4 °F 75% 29.68 in 10.0 mi WNW 5.8 mph - N/A   Clear
7:55 AM 37.4 °F 33.8 °F 28.4 °F 70% 29.68 in 10.0 mi West 4.6 mph - N/A   Clear
8:15 AM 39.2 °F 34.2 °F 28.4 °F 65% 29.68 in 10.0 mi WNW 6.9 mph - N/A   Clear
8:55 AM 39.2 °F 33.0 °F 28.4 °F 65% 29.68 in 10.0 mi West 9.2 mph - N/A   Partly Cloudy
9:15 AM 39.2 °F 34.2 °F 28.4 °F 65% 29.68 in 10.0 mi West 6.9 mph - N/A   Partly Cloudy
9:35 AM 39.2 °F 33.6 °F 28.4 °F 65% 29.68 in 10.0 mi NNW 8.1 mph - N/A   Mostly Cloudy
9:55 AM 39.2 °F 35.9 °F 28.4 °F 65% 29.68 in 10.0 mi West 4.6 mph - N/A   Mostly Cloudy
10:15 AM 39.2 °F 35.0 °F 28.4 °F 65% 29.68 in 10.0 mi WNW 5.8 mph - N/A   Mostly Cloudy
10:55 AM 39.2 °F 33.6 °F 28.4 °F 65% 29.67 in 10.0 mi NNW 8.1 mph - N/A   Mostly Cloudy
11:15 AM 39.2 °F 33.0 °F 30.2 °F 70% 29.67 in 10.0 mi North 9.2 mph - N/A   Scattered Clouds
11:35 AM 41.0 °F 36.4 °F 28.4 °F 61% 29.67 in 10.0 mi NNW 6.9 mph - N/A   Partly Cloudy
11:55 AM 41.0 °F 37.1 °F 30.2 °F 65% 29.66 in 10.0 mi NNW 5.8 mph - N/A   Partly Cloudy
12:15 PM 42.8 °F 38.6 °F 30.2 °F 61% 29.65 in 10.0 mi NNW 6.9 mph - N/A   Clear
12:35 PM 41.0 °F 35.8 °F 30.2 °F 65% 29.65 in 10.0 mi North 8.1 mph - N/A   Clear
12:55 PM 41.0 °F 35.2 °F 30.2 °F 65% 29.64 in 10.0 mi North 9.2 mph - N/A   Partly Cloudy
1:15 PM 41.0 °F 34.7 °F 30.2 °F 65% 29.64 in 10.0 mi NNE 10.4 mph - N/A   Clear
1:55 PM 41.0 °F 36.4 °F 30.2 °F 65% 29.65 in 10.0 mi North 6.9 mph - N/A   Clear
2:15 PM 41.0 °F 34.7 °F 30.2 °F 65% 29.65 in 10.0 mi NE 10.4 mph - N/A   Clear
2:55 PM 39.2 °F 33.6 °F 30.2 °F 70% 29.64 in 10.0 mi NE 8.1 mph - N/A   Mostly Cloudy
3:15 PM 39.2 °F 35.9 °F 32.0 °F 75% 29.64 in 10.0 mi NE 4.6 mph - N/A   Overcast
3:55 PM 39.2 °F 37.0 °F 32.0 °F 75% 29.64 in 10.0 mi NE 3.5 mph - N/A   Overcast
4:15 PM 39.2 °F - 30.2 °F 70% 29.64 in 10.0 mi Calm Calm - N/A   Overcast
4:35 PM 39.2 °F - 30.2 °F 70% 29.64 in 10.0 mi Calm Calm - N/A   Overcast
5:15 PM 39.2 °F - 30.2 °F 70% 29.64 in 10.0 mi Calm Calm - N/A   Overcast
5:55 PM 39.2 °F - 32.0 °F 75% 29.65 in 10.0 mi Calm Calm - N/A   Overcast
6:35 PM 39.2 °F - 32.0 °F 75% 29.66 in 10.0 mi Calm Calm - N/A   Overcast
6:55 PM 39.2 °F - 32.0 °F 75% 29.66 in 10.0 mi Calm Calm - N/A   Overcast
7:15 PM 39.2 °F - 32.0 °F 75% 29.66 in 10.0 mi Calm Calm - N/A   Overcast
7:35 PM 39.2 °F 37.0 °F 32.0 °F 75% 29.66 in 10.0 mi SW 3.5 mph - N/A   Overcast
7:55 PM 39.2 °F - 32.0 °F 75% 29.66 in 10.0 mi Calm Calm - N/A   Overcast
8:15 PM 39.2 °F - 32.0 °F 75% 29.66 in 10.0 mi Calm Calm - N/A   Overcast
8:35 PM 39.2 °F - 32.0 °F 75% 29.66 in 10.0 mi Calm Calm - N/A   Overcast
8:55 PM 39.2 °F - 32.0 °F 75% 29.66 in 10.0 mi Calm Calm - N/A   Mostly Cloudy
9:15 PM 39.2 °F - 32.0 °F 75% 29.66 in 10.0 mi Calm Calm - N/A   Overcast
9:35 PM 39.2 °F - 32.0 °F 75% 29.66 in 10.0 mi Calm Calm - N/A   Overcast
9:55 PM 39.2 °F 35.9 °F 30.2 °F 70% 29.65 in 10.0 mi WNW 4.6 mph - N/A   Overcast
10:15 PM 39.2 °F 35.0 °F 30.2 °F 70% 29.65 in 10.0 mi WNW 5.8 mph - N/A   Overcast
10:35 PM 39.2 °F - 28.4 °F 65% 29.64 in 10.0 mi Calm Calm - N/A   Overcast
10:55 PM 39.2 °F 35.0 °F 28.4 °F 65% 29.64 in 10.0 mi WNW 5.8 mph - N/A   Overcast
11:15 PM 37.4 °F 32.8 °F 30.2 °F 75% 29.64 in 10.0 mi NW 5.8 mph - N/A   Overcast
11:35 PM 37.4 °F 34.9 °F 32.0 °F 81% 29.64 in 10.0 mi NNW 3.5 mph - N/A   Overcast
11:55 PM 37.4 °F 34.9 °F 30.2 °F 75% 29.64 in 10.0 mi NW 3.5 mph - N/A   Overcast